ARIANE 3 DEB, 20488

Orbit data source: Space-Track

ARIANE 3 DEB, 20488 is space debris in HEO originally from a launch on Thu, 21 Jul 1988 UTC launched from the French Guiana (FRGUI). Debris objects in space refer to the collection of defunct objects orbiting the Earth. Examples of debris include non-operational satellites, rocket bodies, and fragments generated from explosions, collisions, or faulty payload assembly.

Loading next visibility...
Identifier
20488, 1988-063F
Orbit
HEO
Country
Flag of FRFR
Related business
Manufacturer
Unknown
Mission
Spacecraft
Bus & Motor
Unknown
Mass
Unknown
Launch date (UTC)
1988-07-21 (38 years ago)
Launch vehicle
Unknown
Launch site
French Guiana (FRGUI)
Object type
Payload
Rocket body
Debris
Shape & HBR
Unknown shape, 1.1 m
Radar Cross Section
Large (>1 m²)

Expand to show TLE details & history
Last TLE update: 2 days ago

TLE from 2 days ago
0 ARIANE 3 DEB
1 20488U 88063F   26171.03968959 -.00000003  00000-0  00000-0 0  9997
2 20488   7.1858 184.0069 4790228  26.9095 351.5022  4.96733415655853
Epoch: 2026-06-20T00:57Z
TLE epoch observation values (Epoch: 2026-06-20T00:57:09.180Z)
Latitude
0.00001°
Longitude
-98.56°
Altitude
1,457.684 km
Speed
8.618 km/s
True Right ascension
12h 15m 57s
True Declination
0° 00' 00"
Sunlit
Object was in daylight at epoch
Visualization orbit readout
Latitude
Unknown
Longitude
Unknown
Altitude
Unknown
Speed
Unknown
Apparent Right ascension
Unknown
Apparent Declination
Unknown
Sunlit
N/A
Visualization observer readout
Local Sidereal Time
23:07:56
Azimuth
Unknown
Elevation
Unknown
Doppler factor
Unknown
Orbital elements
Apogee altitude
15,088.264 km
Perigee altitude
1,183.278 km
Semi-major axis
14,513.908 km
Eccentricity
0.47902
Inclination
7.1858°
RAAN
184.0069°
Arg. of periapsis
26.9095°
True anomaly
333.16587°
Mean anomaly
351.5022°
Eccentric anomaly
343.88338°
Mean motion
1.24127 °/min
Orbital period
290.03 mins
BSTAR
0
Loading maneuver chart data...
Computing Atmospheric mass density...
Loading historical data...
Loading historical data...
Loading historical data...
Loading historical data...
Loading historical data...
Loading historical data...
Loading historical data...

Documentation

Showing up to 5 results
|